FW2998 Weather Reports


time (UTC)temp
C
wind
direction
speed
KPH
gust
KPH
rain 1hr
cm
rain 24hr
cm
rain mn
cm
humidity
%
barometer
mb
20260510184019 30 0 3.2 6.4 0.00 0.05 0.03 39 1015.5
20260510183519 31 0 0.0 12.9 0.00 0.05 0.03 42 1015.6
20260510183036 31 0 3.2 12.9 0.00 0.05 0.03 41 1015.6
20260510182521 30 0 3.2 11.3 0.00 0.05 0.03 40 1015.5
20260510182018 30 0 0.0 4.8 0.00 0.05 0.03 43 1015.7
20260510181541 30 0 0.0 6.4 0.00 0.05 0.03 41 1015.7
20260510181019 30 0 0.0 6.4 0.00 0.05 0.03 43 1015.8
20260510180520 30 0 0.0 4.8 0.00 0.05 0.03 43 1015.8
20260510180039 30 81 0.0 6.4 0.00 0.05 0.03 43 1015.9
20260510175521 30 0 0.0 6.4 0.00 0.05 0.03 44 1015.9
20260510175018 30 40 0.0 6.4 0.00 0.05 0.03 45 1015.9
20260510174546 29 0 1.6 6.4 0.00 0.05 0.03 46 1015.9
20260510174020 29 0 0.0 9.7 0.00 0.05 0.03 44 1015.9
20260510173522 29 0 1.6 9.7 0.00 0.05 0.03 44 1016.0
20260510173038 29 223 0.0 9.7 0.00 0.05 0.03 44 1016.0
20260510172519 29 78 0.0 6.4 0.00 0.05 0.03 45 1016.0
20260510172020 30 0 0.0 6.4 0.00 0.05 0.03 45 1016.1
20260510171550 30 296 0.0 4.8 0.00 0.05 0.03 45 1016.2
20260510171017 29 0 0.0 4.8 0.00 0.05 0.03 48 1016.1
20260510170519 29 0 0.0 4.8 0.00 0.05 0.03 46 1016.2
20260510170045 29 0 0.0 14.5 0.00 0.05 0.03 47 1016.2
20260510165518 29 0 0.0 14.5 0.00 0.05 0.03 45 1016.4
20260510165018 29 261 3.2 14.5 0.00 0.05 0.03 45 1016.5
20260510164532 29 0 1.6 9.7 0.00 0.05 0.03 45 1016.5
20260510164017 29 64 1.6 6.4 0.00 0.05 0.03 46 1016.5
20260510163526 29 76 0.0 6.4 0.00 0.05 0.03 47 1016.4
20260510163046 29 0 0.0 6.4 0.00 0.05 0.03 50 1016.5
20260510162519 29 11 0.0 6.4 0.00 0.05 0.03 49 1016.5
20260510162020 29 284 0.0 6.4 0.00 0.05 0.03 52 1016.5
20260510161534 28 0 0.0 4.8 0.00 0.05 0.03 53 1016.5
20260510161018 28 0 1.6 4.8 0.00 0.05 0.03 51 1016.5
20260510160520 28 0 0.0 4.8 0.00 0.05 0.03 52 1016.6
20260510160041 28 0 0.0 4.8 0.00 0.05 0.03 55 1016.6
20260510155518 28 118 0.0 4.8 0.00 0.05 0.03 55 1016.6
20260510155020 28 0 0.0 6.4 0.00 0.05 0.03 58 1016.7
20260510154536 27 0 0.0 6.4 0.00 0.05 0.03 55 1016.8
20260510154018 28 95 0.0 9.7 0.00 0.05 0.03 56 1016.7
20260510153517 27 0 0.0 9.7 0.00 0.05 0.03 60 1016.7
20260510153040 27 119 0.0 9.7 0.00 0.05 0.03 59 1016.8
20260510152520 27 0 0.0 6.4 0.00 0.05 0.03 59 1016.8
20260510152019 27 0 0.0 11.3 0.00 0.05 0.03 61 1016.8
20260510151537 26 275 1.6 11.3 0.00 0.05 0.03 63 1016.8
20260510151019 26 0 0.0 6.4 0.00 0.05 0.03 63 1016.7
20260510150519 26 0 0.0 4.8 0.00 0.05 0.03 63 1016.7
20260510150048 26 0 0.0 9.7 0.00 0.05 0.03 64 1016.7
20260510145520 26 16 1.6 11.3 0.00 0.05 0.03 63 1016.7
20260510145018 25 0 0.0 11.3 0.00 0.05 0.03 68 1016.6
20260510144543 25 0 1.6 11.3 0.00 0.05 0.03 66 1016.7
20260510144018 25 0 1.6 6.4 0.00 0.05 0.03 67 1016.6
20260510143522 25 105 1.6 6.4 0.00 0.05 0.03 68 1016.6
20260510143037 25 0 0.0 3.2 0.00 0.05 0.03 73 1016.6
20260510142519 25 0 0.0 3.2 0.00 0.05 0.03 73 1016.5
20260510142020 24 82 0.0 3.2 0.00 0.05 0.03 73 1016.5
20260510141536 23 42 0.0 3.2 0.00 0.05 0.03 76 1016.5
20260510141020 23 0 0.0 12.9 0.00 0.05 0.03 76 1016.5
20260510140519 23 277 1.6 12.9 0.00 0.05 0.03 76 1016.5
20260510140035 23 287 1.6 12.9 0.00 0.05 0.03 77 1016.5
20260510135522 22 0 0.0 4.8 0.00 0.05 0.03 79 1016.5
20260510135020 22 0 0.0 9.7 0.00 0.05 0.03 80 1016.5
20260510134535 22 0 0.0 9.7 0.00 0.05 0.03 81 1016.6
20260510134023 21 271 0.0 4.8 0.00 0.05 0.03 84 1016.6
20260510133519 21 284 0.0 6.4 0.00 0.05 0.03 86 1016.6
20260510133039 21 0 1.6 6.4 0.00 0.05 0.03 87 1016.6
20260510132519 20 0 0.0 1.6 0.00 0.05 0.03 90 1016.5
20260510132020 20 0 0.0 1.6 0.00 0.05 0.03 91 1016.4
20260510131532 20 0 0.0 4.8 0.00 0.05 0.03 93 1016.4
20260510131025 19 0 0.0 4.8 0.00 0.05 0.03 94 1016.4
20260510130522 19 0 0.0 3.2 0.00 0.05 0.03 94 1016.3
20260510130038 18 0 0.0 3.2 0.00 0.05 0.03 95 1016.3
20260510125524 18 0 0.0 3.2 0.00 0.05 0.03 95 1016.5
20260510125021 18 0 0.0 6.4 0.00 0.05 0.03 95 1016.4
20260510124536 18 263 0.0 6.4 0.00 0.05 0.03 95 1016.4
20260510124019 18 5 0.0 4.8 0.00 0.05 0.03 95 1016.4
20260510123523 17 0 0.0 4.8 0.00 0.05 0.03 95 1016.4
20260510123036 17 0 0.0 6.4 0.00 0.05 0.03 95 1016.3
20260510122521 17 315 0.0 6.4 0.00 0.05 0.03 95 1016.3
20260510122020 17 308 0.0 0.0 0.00 0.05 0.03 95 1016.4
20260510121539 17 0 0.0 0.0 0.00 0.05 0.03 94 1016.4
20260510121022 17 0 0.0 0.0 0.00 0.05 0.03 94 1016.2
20260510120526 17 0 0.0 0.0 0.00 0.05 0.03 94 1016.2
20260510120038 17 0 0.0 0.0 0.00 0.05 0.03 94 1016.1
20260510115520 17 0 0.0 0.0 0.00 0.08 0.03 94 1015.9
20260510115022 17 0 0.0 0.0 0.00 0.08 0.03 94 1016.0
20260510114537 17 0 0.0 0.0 0.00 0.08 0.03 94 1015.9
20260510114019 16 0 0.0 0.0 0.00 0.08 0.03 94 1015.9
20260510113521 16 0 0.0 0.0 0.00 0.08 0.03 94 1015.6
20260510113041 16 0 0.0 0.0 0.00 0.08 0.03 93 1015.6
20260510112521 16 0 0.0 0.0 0.00 0.08 0.03 93 1015.6
20260510112023 16 0 0.0 0.0 0.00 0.08 0.03 93 1015.6
20260510111536 16 0 0.0 0.0 0.00 0.08 0.03 93 1015.6
20260510111020 16 0 0.0 0.0 0.00 0.08 0.03 93 1015.3
20260510110520 16 0 0.0 0.0 0.00 0.08 0.03 93 1015.3
20260510110047 16 0 0.0 0.0 0.00 0.08 0.03 92 1015.3
20260510105522 16 0 0.0 0.0 0.00 0.08 0.03 92 1015.1
20260510105020 16 0 0.0 0.0 0.00 0.08 0.03 92 1015.2
20260510104535 16 0 0.0 0.0 0.00 0.08 0.03 93 1015.0
20260510104021 16 0 0.0 0.0 0.00 0.08 0.03 93 1015.0
20260510103521 16 0 0.0 0.0 0.00 0.08 0.03 92 1014.9
20260510103043 16 0 0.0 0.0 0.00 0.08 0.03 92 1014.9
20260510102522 16 0 0.0 0.0 0.00 0.08 0.03 92 1014.8
20260510102021 16 0 0.0 0.0 0.00 0.08 0.03 92 1014.7
20260510101541 16 0 0.0 0.0 0.00 0.08 0.03 92 1014.5
20260510101022 16 0 0.0 0.0 0.00 0.08 0.03 92 1014.5
20260510100522 17 0 0.0 0.0 0.00 0.08 0.03 92 1014.5
20260510100047 17 0 0.0 0.0 0.00 0.08 0.03 92 1014.4
20260510095521 17 0 0.0 0.0 0.00 0.10 0.03 93 1014.5
20260510095021 17 0 0.0 0.0 0.00 0.10 0.03 93 1014.4
20260510094541 17 0 0.0 0.0 0.00 0.10 0.03 93 1014.4
20260510094022 17 0 0.0 0.0 0.00 0.10 0.03 93 1014.4
20260510093521 17 0 0.0 0.0 0.00 0.10 0.03 92 1014.4
20260510093039 17 0 0.0 0.0 0.00 0.10 0.03 93 1014.3
20260510092522 17 0 0.0 0.0 0.00 0.10 0.03 92 1014.3
20260510092021 17 0 0.0 0.0 0.00 0.10 0.03 92 1014.2
20260510091534 17 0 0.0 0.0 0.00 0.10 0.03 92 1014.0
20260510091020 17 0 0.0 0.0 0.00 0.10 0.03 92 1014.0
20260510090522 17 0 0.0 0.0 0.00 0.10 0.03 92 1014.0
20260510090035 17 0 0.0 0.0 0.00 0.10 0.03 92 1013.9
20260510085521 17 0 0.0 0.0 0.00 0.10 0.03 92 1013.8
20260510085021 17 0 0.0 0.0 0.00 0.10 0.03 92 1013.9
20260510084539 17 0 0.0 0.0 0.00 0.10 0.03 92 1013.9
20260510084020 17 0 0.0 0.0 0.00 0.10 0.03 92 1013.9
20260510083523 17 0 0.0 0.0 0.00 0.10 0.03 92 1013.8
20260510083036 17 0 0.0 0.0 0.00 0.10 0.03 92 1013.7
20260510082519 17 0 0.0 0.0 0.00 0.10 0.03 92 1013.6
20260510082021 17 0 0.0 0.0 0.00 0.10 0.03 92 1013.6
20260510081541 17 0 0.0 0.0 0.00 0.10 0.03 92 1013.6
20260510081022 17 0 0.0 0.0 0.00 0.10 0.03 92 1013.6
20260510080521 17 0 0.0 0.0 0.00 0.10 0.03 92 1013.7
20260510080051 17 0 0.0 0.0 0.00 0.10 0.03 92 1013.6
20260510075522 17 0 0.0 0.0 0.00 0.10 0.03 92 1013.5
20260510075022 17 0 0.0 0.0 0.00 0.10 0.03 92 1013.4
20260510074538 17 0 0.0 0.0 0.00 0.10 0.03 92 1013.4
20260510074021 17 0 0.0 0.0 0.00 0.10 0.03 91 1013.4
20260510073521 17 0 0.0 0.0 0.00 0.10 0.03 91 1013.6
20260510073047 17 0 0.0 0.0 0.03 0.10 0.03 91 1013.5
20260510072521 17 0 0.0 0.0 0.03 0.10 0.03 91 1013.5
20260510072022 17 0 0.0 0.0 0.03 0.10 0.03 91 1013.5
20260510071538 17 0 0.0 0.0 0.03 0.10 0.03 91 1013.5
20260510071021 17 0 0.0 0.0 0.03 0.10 0.03 91 1013.5
20260510070521 17 0 0.0 0.0 0.03 0.10 0.03 91 1013.5
20260510070046 17 0 0.0 0.0 0.03 0.10 0.03 91 1013.6
20260510065521 17 0 0.0 0.0 0.03 0.10 0.03 91 1013.4
20260510065021 17 0 0.0 0.0 0.03 0.10 0.03 91 1013.4
20260510064543 17 0 0.0 0.0 0.03 0.10 0.03 91 1013.3
20260510064020 17 0 0.0 0.0 0.03 0.10 0.03 90 1013.4
20260510063521 17 0 0.0 0.0 0.03 0.10 0.03 90 1013.3
20260510063038 17 0 0.0 0.0 0.00 0.08 0.00 90 1013.4
20260510062519 17 0 0.0 0.0 0.00 0.08 0.00 90 1013.4
20260510062020 17 0 0.0 0.0 0.00 0.08 0.00 90 1013.4
20260510061533 17 0 0.0 0.0 0.00 0.08 0.00 90 1013.4
20260510061019 17 0 0.0 0.0 0.00 0.08 0.00 89 1013.5
20260510060519 17 0 0.0 0.0 0.00 0.08 0.00 89 1013.5
20260510060041 17 0 0.0 0.0 0.00 0.08 0.00 89 1013.4
20260510055526 17 0 0.0 0.0 0.00 0.10 0.00 89 1013.5
20260510055018 17 0 0.0 0.0 0.00 0.10 0.00 89 1013.5
20260510054537 17 0 0.0 0.0 0.00 0.10 0.00 89 1013.7
20260510054022 18 0 0.0 0.0 0.00 0.10 0.00 89 1013.7
20260510053520 18 0 0.0 0.0 0.00 0.10 0.00 89 1013.7
20260510053037 18 0 0.0 0.0 0.00 0.10 0.00 89 1013.7
20260510052519 18 0 0.0 0.0 0.00 0.10 0.00 89 1013.7
20260510052022 18 0 0.0 0.0 0.00 0.10 0.00 89 1013.7
20260510051536 18 0 0.0 0.0 0.00 0.10 0.00 89 1013.7
20260510051018 18 0 0.0 0.0 0.00 0.10 0.00 88 1013.7
20260510050519 18 0 0.0 0.0 0.00 0.10 0.00 88 1013.8
20260510050037 18 0 0.0 0.0 0.00 0.10 0.00 88 1013.8
20260510045522 18 0 0.0 0.0 0.00 0.13 0.00 88 1013.8
20260510045019 18 0 0.0 0.0 0.00 0.13 0.00 88 1013.9
20260510044536 18 0 0.0 0.0 0.00 0.13 0.00 88 1013.8
20260510044019 18 0 0.0 0.0 0.00 0.13 0.00 88 1013.8
20260510043518 18 0 0.0 0.0 0.00 0.13 0.00 88 1013.8
20260510043034 18 0 0.0 0.0 0.00 0.13 0.00 88 1013.7
20260510042518 18 0 0.0 0.0 0.00 0.13 0.00 87 1013.8
20260510042020 18 0 0.0 0.0 0.00 0.13 0.00 87 1013.7
20260510041539 18 0 0.0 0.0 0.00 0.13 0.00 87 1013.8
20260510041023 18 0 0.0 0.0 0.00 0.13 0.00 87 1013.7
20260510040519 18 0 0.0 0.0 0.00 0.13 0.00 87 1013.7
20260510040038 18 0 0.0 0.0 0.00 0.13 0.00 86 1013.7
20260510035521 18 0 0.0 0.0 0.00 0.13 0.13 86 1013.7
20260510035019 18 0 0.0 0.0 0.00 0.13 0.13 86 1013.5
20260510034536 19 0 0.0 0.0 0.00 0.13 0.13 86 1013.7
20260510034022 19 0 0.0 0.0 0.00 0.13 0.13 86 1013.7
20260510033519 19 0 0.0 0.0 0.00 0.13 0.13 85 1013.6
20260510033046 19 0 0.0 0.0 0.00 0.13 0.13 85 1013.6
20260510032519 19 0 0.0 0.0 0.00 0.13 0.13 85 1013.5
20260510032019 19 0 0.0 0.0 0.00 0.13 0.13 85 1013.6
20260510031538 20 0 0.0 0.0 0.00 0.13 0.13 85 1013.7
20260510031019 20 0 0.0 0.0 0.00 0.13 0.13 85 1013.6
20260510030519 20 0 0.0 0.0 0.00 0.13 0.13 85 1013.6
20260510030034 20 0 0.0 0.0 0.00 0.13 0.13 84 1013.6
20260510025522 20 0 0.0 0.0 0.00 0.13 0.13 84 1013.6
20260510025020 20 0 0.0 0.0 0.00 0.13 0.13 84 1013.5
20260510024535 20 0 0.0 0.0 0.00 0.13 0.13 84 1013.5
20260510024022 20 0 0.0 0.0 0.00 0.13 0.13 84 1013.6
20260510023520 20 0 0.0 0.0 0.00 0.13 0.13 84 1013.6
20260510023036 20 0 0.0 0.0 0.00 0.13 0.13 84 1013.6
20260510022519 20 0 0.0 0.0 0.00 0.13 0.13 83 1013.6
20260510022019 20 0 0.0 0.0 0.00 0.13 0.13 83 1013.6
20260510021616 20 0 0.0 0.0 0.00 0.13 0.13 83 1013.6
20260510021019 20 0 0.0 0.0 0.00 0.13 0.13 83 1013.6
20260510020519 20 0 0.0 0.0 0.00 0.13 0.13 82 1013.6
20260510020035 20 0 0.0 0.0 0.00 0.13 0.13 82 1013.5
20260510015521 20 0 0.0 0.0 0.00 0.13 0.13 82 1013.4
20260510015018 20 0 0.0 0.0 0.00 0.13 0.13 82 1013.3
20260510014548 20 0 0.0 0.0 0.00 0.13 0.13 82 1013.3
20260510014020 21 0 0.0 0.0 0.00 0.13 0.13 82 1013.2
20260510013522 21 0 0.0 0.0 0.00 0.13 0.13 82 1013.2
20260510013033 21 0 0.0 0.0 0.00 0.13 0.13 81 1013.1
20260510012519 21 0 0.0 0.0 0.00 0.13 0.13 81 1013.0
20260510012019 21 0 0.0 0.0 0.00 0.13 0.13 81 1012.9
20260510011534 21 0 0.0 0.0 0.00 0.13 0.13 81 1013.1
20260510011021 21 0 0.0 0.0 0.00 0.13 0.13 80 1012.8
20260510010522 21 0 0.0 0.0 0.00 0.13 0.13 80 1012.7
20260510010043 21 0 0.0 0.0 0.00 0.13 0.13 80 1012.6
20260510005522 21 0 0.0 0.0 0.00 0.15 0.13 79 1012.5
20260510005022 21 0 0.0 0.0 0.00 0.15 0.13 79 1012.5
20260510004535 21 0 0.0 0.0 0.00 0.15 0.13 79 1012.5
20260510004019 21 0 0.0 0.0 0.00 0.15 0.13 78 1012.5
20260510003519 21 0 0.0 0.0 0.00 0.15 0.13 78 1012.3
20260510003036 21 0 0.0 0.0 0.00 0.15 0.13 78 1012.2
20260510002520 21 0 0.0 0.0 0.00 0.15 0.13 77 1012.1
20260510002019 22 0 0.0 0.0 0.00 0.15 0.13 76 1012.0
20260510001534 22 0 0.0 0.0 0.00 0.15 0.13 76 1011.9
20260510001022 22 0 0.0 0.0 0.00 0.15 0.13 76 1011.8
20260510000520 22 0 0.0 0.0 0.00 0.15 0.13 76 1011.8
20260510000036 22 0 0.0 0.0 0.00 0.15 0.13 75 1011.7
20260509235520 22 0 0.0 0.0 0.00 0.15 0.13 75 1011.6
20260509235019 22 0 0.0 0.0 0.00 0.15 0.13 75 1011.6
20260509234538 22 0 0.0 0.0 0.00 0.15 0.13 75 1011.6
20260509234021 22 0 0.0 0.0 0.00 0.15 0.13 75 1011.5
20260509233519 22 0 0.0 0.0 0.00 0.15 0.13 74 1011.4
20260509233036 22 0 0.0 0.0 0.00 0.15 0.13 74 1011.4
20260509232521 23 0 0.0 3.2 0.00 0.15 0.13 74 1011.2
20260509232019 23 0 0.0 3.2 0.00 0.15 0.13 73 1011.2
20260509231537 23 0 0.0 4.8 0.00 0.15 0.13 73 1011.3
20260509231019 23 0 0.0 4.8 0.00 0.15 0.13 73 1011.2
20260509230519 23 277 0.0 3.2 0.00 0.15 0.13 73 1011.3
20260509230040 23 0 0.0 3.2 0.00 0.15 0.13 73 1011.2
20260509225519 23 0 0.0 3.2 0.00 0.15 0.13 73 1011.1
20260509225018 23 0 0.0 6.4 0.00 0.15 0.13 72 1011.2
20260509224536 23 0 0.0 6.4 0.00 0.15 0.13 72 1011.2
20260509224019 23 273 0.0 1.6 0.00 0.15 0.13 73 1011.2
20260509223519 23 0 0.0 1.6 0.00 0.15 0.13 73 1011.1
20260509223032 23 0 0.0 1.6 0.00 0.15 0.13 73 1011.3
20260509222519 23 0 0.0 4.8 0.00 0.15 0.13 73 1011.3
20260509222019 23 0 0.0 4.8 0.00 0.15 0.13 73 1011.3
20260509221538 23 0 0.0 1.6 0.00 0.15 0.13 73 1011.2
20260509221021 23 0 0.0 3.2 0.03 0.15 0.13 73 1011.3
20260509220522 23 0 0.0 3.2 0.03 0.15 0.13 72 1011.1
20260509220039 23 208 0.0 3.2 0.03 0.15 0.13 72 1011.2
20260509215522 23 0 0.0 3.2 0.03 0.18 0.13 73 1011.1
20260509215019 23 0 0.0 1.6 0.03 0.18 0.13 73 1011.2
20260509214539 23 0 0.0 4.8 0.03 0.18 0.13 73 1011.4
20260509214019 23 0 0.0 6.4 0.03 0.18 0.13 73 1011.2
20260509213519 23 288 0.0 8.0 0.03 0.18 0.13 72 1011.2
20260509213037 23 283 0.0 9.7 0.03 0.18 0.13 73 1011.2
20260509212520 23 287 0.0 9.7 0.03 0.18 0.13 72 1011.2
20260509212022 24 294 1.6 9.7 0.03 0.18 0.13 72 1011.1
20260509211537 23 0 0.0 6.4 0.03 0.18 0.13 72 1011.1
20260509211019 23 0 0.0 8.0 0.00 0.15 0.10 72 1011.3
20260509210521 23 0 0.0 8.0 0.00 0.15 0.10 72 1011.3
20260509210040 23 89 0.0 4.8 0.00 0.15 0.10 72 1011.2
20260509205521 23 0 0.0 12.9 0.00 0.15 0.10 72 1011.2
20260509205019 23 0 0.0 14.5 0.00 0.15 0.10 73 1011.1
20260509204539 23 0 0.0 14.5 0.00 0.15 0.10 73 1011.2
20260509204020 23 261 1.6 14.5 0.00 0.15 0.10 73 1011.3
20260509203519 23 0 0.0 9.7 0.00 0.15 0.10 74 1011.3
20260509203036 23 0 0.0 0.0 0.00 0.15 0.10 74 1011.5
20260509202519 23 0 0.0 8.0 0.00 0.15 0.10 74 1011.5
20260509202021 23 0 0.0 8.0 0.00 0.15 0.10 73 1011.6
20260509201539 23 0 0.0 11.3 0.00 0.15 0.10 73 1011.6
20260509201019 23 256 0.0 12.9 0.00 0.15 0.10 73 1011.6
20260509200519 23 0 0.0 12.9 0.00 0.15 0.10 72 1011.6
20260509200039 23 0 0.0 12.9 0.00 0.15 0.10 72 1011.6
20260509195520 23 156 0.0 9.7 0.00 0.15 0.10 72 1011.6
20260509195019 23 0 0.0 9.7 0.00 0.15 0.10 72 1011.6
20260509194547 23 0 0.0 6.4 0.00 0.15 0.10 72 1011.6
20260509194019 23 0 0.0 6.4 0.00 0.15 0.10 72 1011.7
20260509193519 23 0 0.0 8.0 0.00 0.15 0.10 72 1011.7
20260509193040 23 347 0.0 8.0 0.00 0.15 0.10 72 1011.7
20260509192519 23 0 0.0 11.3 0.00 0.15 0.10 72 1011.8
20260509192019 23 0 1.6 11.3 0.00 0.15 0.10 72 1012.0
20260509191538 23 0 0.0 6.4 0.00 0.15 0.10 73 1012.0
20260509191023 23 259 0.0 6.4 0.00 0.15 0.10 72 1012.0
20260509190519 23 0 0.0 4.8 0.00 0.15 0.10 72 1012.1
20260509190037 23 0 0.0 6.4 0.00 0.15 0.10 72 1012.1
20260509185519 23 0 0.0 6.4 0.00 0.18 0.10 72 1012.2
20260509185019 23 289 0.0 12.9 0.00 0.18 0.10 71 1012.0
20260509184536 23 0 0.0 12.9 0.00 0.18 0.10 72 1012.1